Location: Baggett Branch
(32.6074°N, 97.0167°W)
Time: 10:24:33
(UTC+00:00)

Cosmos 1570 Rocket - Pass Details

Date: 10 February 2026
Orbit: 760 x 783 km, 74.1° (Epoch: 8 March)

Event Time Altitude Azimuth Distance (km) Brightness Sun altitude
Rises 12:27:38 0° 335° (NNW) 3,224 6.9 -10.6°
Reaches altitude 10° 12:30:06 10° 329° (NNW) 2,294 6.1 -10.1°
Maximum altitude 12:35:01 44° 258° (WSW) 1,042 4.3 -9.1°
Drops below altitude 10° 12:39:54 10° 187° (S) 2,283 6.5 -8.1°
Sets 12:42:21 0° 181° (S) 3,207 7.4 -7.6°
